Regional Weather Roundup
Issued by NWS Sioux Falls, SD

Home | Current Version | Previous Version | Text Only | Print | Product List | Glossary Off
Versions: 1 2 3 4 5 6 7 8 9 10 11 12 13 14 15 16 17 18 19 20 21 22 23 24 25 26 27 28 29 30 31 32 33 34 35 36 37 38 39 40 41 42 43 44 45 46 47 48 49 50

000
ASUS43 KFSD 310910
RWRFSD

WEATHER ROUNDUP FOR SE SOUTH DAKOTA/SW MINNESOTA/NW IOWA
NATIONAL WEATHER SERVICE SIOUX FALLS SD
400 AM CDT FRI JUL 31 2015

NOTE: "FAIR" INDICATES FEW OR NO CLOUDS BELOW 12,000 FEET WITH NO
SIGNIFICANT WEATHER AND OR OBSTRUCTIONS TO VISIBILITY.


SDZ038>040-050-052>070-311000-
SOUTHEAST SOUTH DAKOTA

CITY           SKY/WX    TMP DP  RH WIND       PRES   REMARKS
BROOKINGS      CLEAR     63  55  77 CALM      30.16S
CHAMBERLAIN    CLEAR     65  56  73 E5        30.15S
HURON          CLEAR     61  59  93 CALM      30.12S
MADISON        FAIR      59  59 100 CALM      30.15S
MITCHELL       CLEAR     65  60  84 CALM      30.13F
SIOUX FALLS    CLEAR     61  58  90 CALM      30.13F
WINNER         FAIR      68  52  56 NE3       30.16S
YANKTON          N/A    N/A N/A N/A MISG        N/A
$$

MNZ071-072-080-081-089-090-097-098-311000-
SOUTHWEST MINNESOTA

CITY           SKY/WX    TMP DP  RH WIND       PRES   REMARKS
FAIRMONT       CLEAR     64  55  72 CALM      30.10S
JACKSON        PTCLDY    63  59  88 W5        30.13S
LUVERNE        CLEAR     61  57  88 CALM      30.14S
MARSHALL       CLEAR     61  52  72 W8        30.12R
MONTEVIDEO     CLEAR     61  55  82 NW6       30.12R
PIPESTONE      CLEAR     61  59  94 CALM      30.14F
REDWOOD FALLS  CLEAR     63  58  83 W8        30.09R
TRACY          CLEAR     66  57  72 W7        30.12S
WINDOM         CLEAR     61  57  88 CALM      30.12S
WORTHINGTON    PTCLDY    61  55  82 W3        30.14S
$$

IAZ001>003-012>014-020>022-031-032-NEZ013-014-SDZ071-311000-
NORTHWEST IOWA

CITY           SKY/WX    TMP DP  RH WIND       PRES   REMARKS
CHEROKEE       CLEAR     64  64 100 CALM      30.13S
DENISON        MOCLDY    66  66 100 CALM      30.12R
ESTHERVILLE    CLEAR     62  59  90 NW8       30.12S
LE MARS        CLEAR     64  64 100 N12       30.14R
ORANGE CITY    CLEAR     64  63  94 CALM      30.14S
SHELDON        PTCLDY    59  59 100 CALM      30.13S
SIOUX CITY     PTCLDY    69  62  78 CALM      30.12F
SPENCER        PTCLDY    62  58  86 SW3       30.13S
STORM LAKE     CLEAR     66  63  88 W7        30.14R
$$

ABBREVIATIONS USED IN REMARKS
   TC - TEMPERATURE IN CELSIUS
  WCI - WIND CHILL INDEX
   HX - HEAT INDEX
  VSB - VISIBILITY




USA.gov is the U.S. government's official web portal to all federal, state and local government web resources and services.